Regional Weather Roundup
Issued by NWS

Home | Current Version | Previous Version | Graphics & Text | Print | Product List | Glossary On
Versions: 1 2 3 4 5 6 7 8 9 10 11 12 13 14 15 16 17 18 19 20 21 22 23 24 25 26 27 28 29 30 31 32 33 34 35 36 37 38 39 40 41 42 43 44 45 46 47 48 49 50
000
ASUS45 KPSR 252310
RWRAZ

ARIZONA REGIONAL HOURLY WEATHER ROUNDUP
NATIONAL WEATHER SERVICE PHOENIX AZ
400 PM MST SAT APR 25 2015

NOTE: FAIR INDICATES FEW OR NO CLOUDS BELOW 12,000 FEET WITH NO
SIGNIFICANT WEATHER AND/OR OBSTRUCTIONS TO VISIBILITY.

AZZ001>003-036-260000-
NORTHWEST ARIZONA

CITY           SKY/WX    TMP DP  RH WIND       PRES   REMARKS
BULLHEAD CITY  CLOUDY    68  46  45 S14       29.70S
KINGMAN        LGT RAIN  59  40  49 SW22G36   29.76F
$$

AZZ004>008-015-016-018-260000-
NORTH CENTRAL ARIZONA

CITY           SKY/WX    TMP DP  RH WIND       PRES   REMARKS
GRAND CANYON   LGT RAIN  40  37  89 W13       29.83F FOG     WCI  32
WILLIAMS       LGT RAIN  43  39  87 W12       29.90F
PRESCOTT       CLOUDY    55  37  50 SW21G30   29.83F
FLAGSTAFF      LGT RAIN  40  40 100 SW20G31   29.83F WCI  30
PAYSON         CLOUDY    55  39  54 SW7G18    29.87F
PAGE           CLOUDY    62  36  37 SW7       29.68F
$$

AZZ009>014-017-260000-
NORTHEAST ARIZONA

CITY           SKY/WX    TMP DP  RH WIND       PRES   REMARKS
WINSLOW        CLOUDY    62  32  32 SW23      29.79F
SAINT JOHNS    MOSUNNY   64  25  22 SW22G35   29.82F
WINDOW ROCK    CLOUDY    58  29  33 SW20G29   29.83F
SHOW LOW       MOSUNNY   57  27  30 S24G37    29.87F
$$

AZZ023-260000-
GREATER PHOENIX AREA

CITY           SKY/WX    TMP DP  RH WIND       PRES   REMARKS
PHOENIX        PTSUNNY   80  43  26 W15G24    29.72F
BUCKEYE        CLOUDY    73  37  27 SW18G28   29.75F
GLENDALE       PTSUNNY   79  45  29 S17G23    29.75F
LUKE AFB       CLOUDY    77  45  31 SW22G28   29.72F
DEER VALLEY    PTSUNNY   75  41  29 SW20G26   29.73F
SCOTTSDALE     PTSUNNY   76  42  29 W14G23    29.75F
MESA-FALCON    PTSUNNY   77  39  25 MISG      29.74F
MESA-GATEWAY   PTSUNNY   77  41  27 W15       29.76F
CHANDLER       PTSUNNY   81  39  22 SW14G21   29.74F
$$

AZZ027-028-260000-
SOUTHWEST MARICOPA COUNTY AND PINAL COUNTY

CITY           SKY/WX    TMP DP  RH WIND       PRES   REMARKS
CASA GRANDE    CLOUDY    79  36  21 SW18      29.74F
GILA BEND      MOSUNNY   79  43  27 W21G28    29.73F
$$

AZZ503-504-507>509-260000-
SOUTHEAST ARIZONA

CITY           SKY/WX    TMP DP  RH WIND       PRES   REMARKS
TUCSON         MOSUNNY   82  28  14 SW18G26   29.81F
RYAN FIELD       N/A     82  32  16 SW16G29   29.81F
NOGALES        SUNNY     76  26  15 SW17G35   29.88F
SIERRA VISTA   SUNNY     73  20  14 W25G36    29.89F
DOUGLAS        MOSUNNY   76  24  14 S18G30    29.86F
SAFFORD        MOSUNNY   79  31  17 VRB7      29.77F
$$

AZZ020-021-025-026-031-260000-
SOUTHWEST ARIZONA

CITY           SKY/WX    TMP DP  RH WIND       PRES   REMARKS
YUMA           CLOUDY    73  43  33 NW14G26   29.79F HAZE
$$

CAZ031-033-041-043-047-048-061-260000-
SOUTHERN CALIFORNIA

CITY           SKY/WX    TMP DP  RH WIND       PRES   REMARKS
DOWNTOWN L.A.  CLOUDY    65  56  72 VRB5      29.88F
L.A. AIRPORT   CLOUDY    60  58  92 W21       29.90F
SAN DIEGO      PTSUNNY   65  52  62 W14       29.97F
BURBANK        HVY RAIN  58  54  86 CALM      29.88F FOG
ONTARIO        HVY RAIN  56  54  93 VRB5      29.89F FOG
RIVERSIDE      LGT RAIN  57  54  89 SW7       29.89F FOG
PALM SPRINGS   PTSUNNY   76  44  32 NE20G29   29.76F
EL CENTRO NAS  CLOUDY    73  44  35 SW40G51   29.83F
IMPERIAL       CLOUDY    72  46  39 W23G38    29.80F
BLYTHE         CLOUDY    73  45  36 SW24G37   29.74F HAZE
NEEDLES        CLOUDY    72  44  36 VRB5      29.70F
$$

NVZ020-UTZ003-260000-
SOUTHERN NEVADA-UTAH

CITY           SKY/WX    TMP DP  RH WIND       PRES   REMARKS
LAS VEGAS      PTSUNNY   70  36  28 SW23G33   29.60F
SALT LAKE CITY CLOUDY    55  38  52 NW10      29.66S THUNDER
$$

NMZ009-TXZ055-260000-
NEW MEXICO-WEST TEXAS

CITY           SKY/WX    TMP DP  RH WIND       PRES   REMARKS
ALBUQUERQUE    PTSUNNY   69  24  18 NW12G22   29.79F
EL PASO        MOSUNNY   80  12   7 SW20G36   29.80F
$$


........................KEY........................
SKY/WX - SKY CONDITION/WEATHER
TMP    - TEMPERATURE IN FAHRENHEIT
DP     - DEW POINT IN FAHRENHEIT
RH     - RELATIVE HUMIDITY IN PERCENT
WIND   - DIRECTION AND SPEED IN MILES PER HOUR (MPH)
VRB    - VARIABLE WIND DIRECTION
PRES   - MEAN SEA LEVEL PRESSURE IN INCHES OF MERCURY
         F - FALLING PRESSURE   R - RISING PRESSURE
         S - STEADY PRESSURE
VSB    - VISIBILITY IN MILES
HX     - HEAT INDEX IN FAHRENHEIT
WCI    - WIND CHILL INDEX IN FAHRENHEIT
TC     - TEMPERATURE IN CELSIUS WHICH IS ALSO KNOWN AS
         TEMPERATURE IN CENTIGRADE
AFB    - AIR FORCE BASE
         LUKE AFB IS LUKE AIR FORCE BASE
         DAVIS-MONTHAN IS DAVIS-MONTHAN AIR FORCE BASE
NAS    - NAVAL AIR STATION
         EL CENTRO NAS IS EL CENTRO NAVAL AIR STATION
N/A    - NOT AVAILABLE



USA.gov is the U.S. government's official web portal to all federal, state and local government web resources and services.